STARLINK-11311 [DTC] (61253 NORAD) Tracking and Keplerian Element Data

This shows tracking and keplerian element data for the satellite.

Feedback or suggestion? Click here.




ElementValue
Catalog61253
NameSTARLINK-11311 [DTC]
Epoch Orbit398
Epoch Day286.91668981
Epoch Year2024
RAAN64.9902
Inclination53.1629
Eccentricity0.000104
Argument of Perigee98.1695
Mean Anonmoly25.6217
Mean Motion15.80354984
Decay Rate0.00017062
L11 61253U 24175L 24286.91668981 .00017062 00000+0 91949-4 0 9997
L22 61253 53.1629 64.9902 0001040 98.1695 25.6217 15.80354984 3988



Live tracking and technical data element details for STARLINK-11311 [DTC] (NORAD 61253). STARLINK-11311 [DTC] can be tracked NOW for your location showing map with azimuth and elevation plus other details from your city location.







IsCatalogInMostPopularTable: catalog: 61253, numindb: 20
Update: records affected: 1



GetName: 61253 STARLINK-11311 [DTC]

Hit Count: updated at: Wed, 04 Dec 2024 10:32:28 GMT